Time,TemperatureF,DewpointF,PressureIn,WindDirection,WindDirectionDegrees,WindSpeedMPH,WindSpeedGustMPH,Humidity,HourlyPrecipIn,Conditions,Clouds,dailyrainin,SoftwareType,DateUTC
2013-07-03 00:02:00,54.9,49.1,21.88,West,270,0.0,0.0,81,0.00,,,0.00,meteohub,2013-07-03 05:02:00,
2013-07-03 00:07:00,54.9,49.5,21.88,West,270,0.0,0.0,82,0.00,,,0.00,meteohub,2013-07-03 05:07:00,
2013-07-03 00:12:00,55.0,50.0,21.88,NW,315,0.0,0.0,83,0.00,,,0.00,meteohub,2013-07-03 05:12:00,
2013-07-03 00:17:00,55.0,50.0,21.88,NW,315,0.0,0.0,83,0.00,,,0.00,meteohub,2013-07-03 05:17:00,
2013-07-03 00:22:00,55.0,50.4,21.88,West,270,0.0,0.0,84,0.00,,,0.00,meteohub,2013-07-03 05:22:00,
2013-07-03 00:27:00,55.0,50.5,21.88,SW,225,0.0,0.0,85,0.00,,,0.00,meteohub,2013-07-03 05:27:00,
2013-07-03 00:32:00,55.0,50.9,21.88,SW,225,0.0,0.0,86,0.00,,,0.00,meteohub,2013-07-03 05:32:00,
2013-07-03 00:35:00,55.0,51.3,21.88,SW,225,0.0,0.0,87,0.00,,,0.00,meteohub,2013-07-03 05:35:00,
2013-07-03 00:37:00,55.0,50.9,21.88,SW,225,0.0,0.0,86,0.00,,,0.00,meteohub,2013-07-03 05:37:00,
2013-07-03 00:42:00,55.4,51.6,21.88,SW,225,0.0,0.0,87,0.00,,,0.00,meteohub,2013-07-03 05:42:00,
2013-07-03 00:47:00,55.4,51.6,21.88,SW,225,0.0,0.0,87,0.00,,,0.00,meteohub,2013-07-03 05:47:00,
2013-07-03 00:52:00,55.8,52.3,21.88,North,0,0.0,0.0,88,0.00,,,0.00,meteohub,2013-07-03 05:52:00,
2013-07-03 00:57:00,56.1,52.3,21.88,West,270,0.0,0.0,87,0.00,,,0.00,meteohub,2013-07-03 05:57:00,
2013-07-03 01:02:00,56.3,52.5,21.88,West,270,0.0,0.0,87,0.00,,,0.00,meteohub,2013-07-03 06:02:00,
2013-07-03 01:03:00,56.3,52.5,21.88,West,270,0.0,0.0,87,0.00,,,0.00,meteohub,2013-07-03 06:03:00,
2013-07-03 01:08:00,56.8,53.1,21.88,SW,225,2.0,0.0,87,0.00,,,0.00,meteohub,2013-07-03 06:08:00,
2013-07-03 01:13:00,56.8,52.7,21.88,SW,225,2.0,2.0,86,0.00,,,0.00,meteohub,2013-07-03 06:13:00,
2013-07-03 01:15:00,56.8,52.7,21.88,SW,225,0.0,2.0,86,0.00,,,0.00,meteohub,2013-07-03 06:15:00,
2013-07-03 01:17:00,56.8,52.7,21.88,SW,225,0.0,2.0,86,0.00,,,0.00,meteohub,2013-07-03 06:17:00,
2013-07-03 01:22:00,57.0,52.9,21.88,South,180,0.0,2.0,86,0.00,,,0.00,meteohub,2013-07-03 06:22:00,
2013-07-03 01:27:00,57.2,52.7,21.88,WSW,248,0.0,2.0,85,0.00,,,0.00,meteohub,2013-07-03 06:27:00,
2013-07-03 01:35:00,57.2,53.1,21.88,South,180,0.0,1.0,86,0.00,,,0.00,meteohub,2013-07-03 06:35:00,
2013-07-03 01:37:00,57.2,53.1,21.88,NE,45,0.0,1.0,86,0.00,,,0.00,meteohub,2013-07-03 06:37:00,
2013-07-03 01:42:00,57.2,53.1,21.88,NE,45,0.0,1.0,86,0.00,,,0.00,meteohub,2013-07-03 06:42:00,
2013-07-03 01:47:00,57.4,53.6,21.88,SW,225,0.0,0.0,87,0.00,,,0.00,meteohub,2013-07-03 06:47:00,
2013-07-03 01:52:00,57.6,53.8,21.88,NE,45,0.0,0.0,87,0.00,,,0.00,meteohub,2013-07-03 06:52:00,
2013-07-03 01:57:00,57.6,53.8,21.88,NE,45,0.0,0.0,87,0.00,,,0.00,meteohub,2013-07-03 06:57:00,
2013-07-03 02:02:00,57.6,53.8,21.89,NE,45,0.0,0.0,87,0.00,,,0.00,meteohub,2013-07-03 07:02:00,
2013-07-03 02:07:00,57.7,53.6,21.89,NE,45,2.0,2.0,86,0.00,,,0.00,meteohub,2013-07-03 07:07:00,
2013-07-03 02:12:00,57.7,53.2,21.89,East,90,1.0,2.0,85,0.00,,,0.00,meteohub,2013-07-03 07:12:00,
2013-07-03 02:17:00,57.7,53.2,21.89,NE,45,2.0,2.0,85,0.00,,,0.00,meteohub,2013-07-03 07:17:00,
2013-07-03 02:22:00,57.6,53.1,21.89,East,90,2.0,3.0,85,0.00,,,0.00,meteohub,2013-07-03 07:22:00,
2013-07-03 02:27:00,57.6,53.1,21.90,East,90,2.0,4.0,85,0.00,,,0.00,meteohub,2013-07-03 07:27:00,
2013-07-03 02:32:00,57.6,52.7,21.89,NE,45,2.0,4.0,84,0.00,,,0.00,meteohub,2013-07-03 07:32:00,
2013-07-03 02:37:00,57.6,52.7,21.90,South,180,1.0,4.0,84,0.00,,,0.00,meteohub,2013-07-03 07:37:00,
2013-07-03 02:42:00,57.7,52.9,21.90,North,0,0.0,3.0,84,0.00,,,0.00,meteohub,2013-07-03 07:42:00,
2013-07-03 02:47:00,57.7,52.9,21.90,North,0,0.0,3.0,84,0.00,,,0.00,meteohub,2013-07-03 07:47:00,
2013-07-03 02:49:00,57.7,52.9,21.91,NW,315,1.0,3.0,84,0.00,,,0.00,meteohub,2013-07-03 07:49:00,
2013-07-03 02:54:00,57.6,52.5,21.91,East,90,3.0,3.0,83,0.00,,,0.00,meteohub,2013-07-03 07:54:00,
2013-07-03 02:59:00,57.6,52.5,21.91,East,90,4.0,4.0,83,0.00,,,0.00,meteohub,2013-07-03 07:59:00,
2013-07-03 03:04:00,57.6,52.5,21.91,SSW,203,3.0,4.0,83,0.00,,,0.00,meteohub,2013-07-03 08:04:00,
2013-07-03 03:09:00,57.2,51.8,21.91,East,90,1.0,4.0,82,0.00,,,0.00,meteohub,2013-07-03 08:09:00,
2013-07-03 03:13:00,57.2,51.8,21.91,NE,45,1.0,4.0,82,0.00,,,0.00,meteohub,2013-07-03 08:13:00,
2013-07-03 03:18:00,57.2,52.2,21.91,NE,45,1.0,3.0,83,0.00,,,0.00,meteohub,2013-07-03 08:18:00,
2013-07-03 03:22:00,57.2,52.2,21.91,North,0,0.0,3.0,83,0.00,,,0.00,meteohub,2013-07-03 08:22:00,
2013-07-03 03:27:00,57.4,52.0,21.91,NE,45,0.0,1.0,82,0.00,,,0.00,meteohub,2013-07-03 08:27:00,
2013-07-03 03:32:00,57.4,52.0,21.91,NE,45,0.0,1.0,82,0.00,,,0.00,meteohub,2013-07-03 08:32:00,
2013-07-03 03:37:00,57.4,52.0,21.91,NW,315,0.0,0.0,82,0.00,,,0.00,meteohub,2013-07-03 08:37:00,
2013-07-03 03:38:00,57.4,52.0,21.91,NW,315,0.0,0.0,82,0.00,,,0.00,meteohub,2013-07-03 08:38:00,
2013-07-03 03:41:00,57.4,52.0,21.91,NE,45,0.0,0.0,82,0.00,,,0.00,meteohub,2013-07-03 08:41:00,
2013-07-03 03:46:00,57.4,52.3,21.91,NE,45,2.0,2.0,83,0.00,,,0.00,meteohub,2013-07-03 08:46:00,
2013-07-03 03:51:00,57.6,52.5,21.91,NE,45,2.0,2.0,83,0.00,,,0.00,meteohub,2013-07-03 08:51:00,
2013-07-03 03:56:00,57.6,52.5,21.91,SE,135,0.0,2.0,83,0.00,,,0.00,meteohub,2013-07-03 08:56:00,
2013-07-03 04:01:00,57.6,52.5,21.91,North,0,0.0,2.0,83,0.00,,,0.00,meteohub,2013-07-03 09:01:00,
2013-07-03 04:02:00,57.6,52.5,21.91,SW,225,0.0,2.0,83,0.00,,,0.00,meteohub,2013-07-03 09:02:00,
2013-07-03 04:07:00,57.6,52.5,21.91,SW,225,0.0,2.0,83,0.00,,,0.00,meteohub,2013-07-03 09:07:00,
2013-07-03 04:12:00,57.4,52.5,21.91,SW,225,0.0,2.0,84,0.00,,,0.00,meteohub,2013-07-03 09:12:00,
2013-07-03 04:17:00,57.4,52.9,21.91,SW,225,0.0,2.0,85,0.00,,,0.00,meteohub,2013-07-03 09:17:00,
2013-07-03 04:22:00,57.4,52.9,21.91,South,180,0.0,2.0,85,0.00,,,0.00,meteohub,2013-07-03 09:22:00,
2013-07-03 04:27:00,57.6,53.4,21.91,SW,225,0.0,2.0,86,0.00,,,0.00,meteohub,2013-07-03 09:27:00,
2013-07-03 04:32:00,57.6,53.4,21.91,South,180,0.0,0.0,86,0.00,,,0.00,meteohub,2013-07-03 09:32:00,
2013-07-03 04:37:00,57.6,53.8,21.91,SE,135,1.0,2.0,87,0.00,,,0.00,meteohub,2013-07-03 09:37:00,
2013-07-03 04:42:00,57.6,53.4,21.91,North,0,0.0,2.0,86,0.00,,,0.00,meteohub,2013-07-03 09:42:00,
2013-07-03 04:47:00,57.6,53.4,21.91,NW,315,0.0,2.0,86,0.00,,,0.00,meteohub,2013-07-03 09:47:00,
2013-07-03 04:52:00,57.6,53.8,21.91,NW,315,0.0,1.0,87,0.00,,,0.00,meteohub,2013-07-03 09:52:00,
2013-07-03 04:57:00,57.7,54.0,21.91,NW,315,0.0,1.0,87,0.00,,,0.00,meteohub,2013-07-03 09:57:00,
2013-07-03 05:02:00,57.7,54.0,21.91,NE,45,1.0,0.0,87,0.00,,,0.00,meteohub,2013-07-03 10:02:00,
2013-07-03 05:07:00,57.7,54.0,21.90,NE,45,1.0,2.0,87,0.00,,,0.00,meteohub,2013-07-03 10:07:00,
2013-07-03 05:11:00,57.9,54.1,21.90,WSW,248,3.0,3.0,87,0.00,,,0.00,meteohub,2013-07-03 10:11:00,
2013-07-03 05:16:00,57.7,54.5,21.90,South,180,0.0,3.0,89,0.00,,,0.00,meteohub,2013-07-03 10:16:00,
2013-07-03 05:21:00,57.9,54.7,21.90,North,0,0.0,3.0,89,0.00,,,0.00,meteohub,2013-07-03 10:21:00,
2013-07-03 05:26:00,58.1,54.5,21.90,NE,45,0.0,3.0,88,0.00,,,0.00,meteohub,2013-07-03 10:26:00,
2013-07-03 05:31:00,58.1,54.3,21.90,NE,45,0.0,2.0,87,0.00,,,0.00,meteohub,2013-07-03 10:31:00,
2013-07-03 05:32:00,58.1,54.3,21.90,NE,45,0.0,2.0,87,0.00,,,0.00,meteohub,2013-07-03 10:32:00,
2013-07-03 05:37:00,58.3,54.5,21.90,South,180,0.0,1.0,87,0.00,,,0.00,meteohub,2013-07-03 10:37:00,
2013-07-03 05:42:00,58.5,54.3,21.90,SW,225,0.0,0.0,86,0.00,,,0.00,meteohub,2013-07-03 10:42:00,
2013-07-03 05:47:00,58.6,54.9,21.90,SW,225,0.0,0.0,87,0.00,,,0.00,meteohub,2013-07-03 10:47:00,
2013-07-03 05:50:00,58.8,55.0,21.90,NE,45,0.0,0.0,87,0.00,,,0.00,meteohub,2013-07-03 10:50:00,
2013-07-03 05:56:00,59.2,54.7,21.90,North,0,2.0,2.0,85,0.00,,,0.00,meteohub,2013-07-03 10:56:00,
2013-07-03 05:57:00,59.2,54.3,21.90,NE,45,2.0,2.0,84,0.00,,,0.00,meteohub,2013-07-03 10:57:00,
2013-07-03 06:02:00,59.4,54.1,21.89,NE,45,0.0,2.0,83,0.00,,,0.00,meteohub,2013-07-03 11:02:00,
2013-07-03 06:07:00,59.5,54.0,21.89,East,90,2.0,2.0,82,0.00,,,0.00,meteohub,2013-07-03 11:07:00,
2013-07-03 06:12:00,59.5,53.8,21.89,East,90,2.0,2.0,81,0.00,,,0.00,meteohub,2013-07-03 11:12:00,
2013-07-03 06:17:00,59.5,53.8,21.89,NE,45,2.0,2.0,81,0.00,,,0.00,meteohub,2013-07-03 11:17:00,
2013-07-03 06:22:00,59.5,53.8,21.89,NE,45,2.0,2.0,81,0.00,,,0.00,meteohub,2013-07-03 11:22:00,
2013-07-03 06:27:00,59.4,53.6,21.89,NE,45,2.0,3.0,81,0.00,,,0.00,meteohub,2013-07-03 11:27:00,
2013-07-03 06:32:00,59.4,53.6,21.89,East,90,0.0,3.0,81,0.00,,,0.00,meteohub,2013-07-03 11:32:00,
2013-07-03 06:37:00,59.4,53.2,21.89,ENE,68,4.0,4.0,80,0.00,,,0.00,meteohub,2013-07-03 11:37:00,
2013-07-03 06:42:00,59.2,53.1,21.89,East,90,2.0,4.0,80,0.00,,,0.00,meteohub,2013-07-03 11:42:00,
2013-07-03 06:46:00,59.4,53.2,21.89,NE,45,2.0,4.0,80,0.00,,,0.00,meteohub,2013-07-03 11:46:00,
2013-07-03 06:52:00,59.4,53.2,21.89,NE,45,1.0,4.0,80,0.00,,,0.00,meteohub,2013-07-03 11:52:00,
2013-07-03 06:57:00,59.5,53.4,21.89,SE,135,2.0,2.0,80,0.00,,,0.00,meteohub,2013-07-03 11:57:00,
2013-07-03 07:02:00,59.7,53.6,21.88,NE,45,2.0,2.0,80,0.00,,,0.00,meteohub,2013-07-03 12:02:00,
2013-07-03 07:07:00,59.7,53.6,21.88,NE,45,2.0,2.0,80,0.00,,,0.00,meteohub,2013-07-03 12:07:00,
2013-07-03 07:12:00,59.9,53.8,21.88,East,90,2.0,2.0,80,0.00,,,0.00,meteohub,2013-07-03 12:12:00,
2013-07-03 07:17:00,60.1,53.6,21.88,East,90,1.0,2.0,79,0.00,,,0.00,meteohub,2013-07-03 12:17:00,
2013-07-03 07:22:00,60.3,53.4,21.88,East,90,2.0,3.0,78,0.00,,,0.00,meteohub,2013-07-03 12:22:00,
2013-07-03 07:27:00,60.4,53.6,21.88,NE,45,2.0,3.0,78,0.00,,,0.00,meteohub,2013-07-03 12:27:00,
2013-07-03 07:32:00,60.6,53.4,21.88,West,270,0.0,3.0,77,0.00,,,0.00,meteohub,2013-07-03 12:32:00,
2013-07-03 07:37:00,60.8,52.9,21.88,East,90,1.0,3.0,75,0.00,,,0.00,meteohub,2013-07-03 12:37:00,
2013-07-03 07:42:00,61.0,53.1,21.88,SE,135,2.0,3.0,75,0.00,,,0.00,meteohub,2013-07-03 12:42:00,
2013-07-03 07:47:00,61.2,52.9,21.87,South,180,1.0,3.0,74,0.00,,,0.00,meteohub,2013-07-03 12:47:00,
2013-07-03 07:53:00,61.2,52.9,21.87,South,180,0.0,2.0,74,0.00,,,0.00,meteohub,2013-07-03 12:53:00,
2013-07-03 07:58:00,61.3,52.7,21.88,SE,135,0.0,2.0,73,0.00,,,0.00,meteohub,2013-07-03 12:58:00,
2013-07-03 08:05:00,61.7,52.9,21.88,SE,135,2.0,3.0,73,0.00,,,0.00,meteohub,2013-07-03 13:05:00,
2013-07-03 08:10:00,61.9,53.1,21.88,East,90,3.0,3.0,73,0.00,,,0.00,meteohub,2013-07-03 13:10:00,
2013-07-03 08:12:00,62.1,53.2,21.87,East,90,4.0,4.0,73,0.00,,,0.00,meteohub,2013-07-03 13:12:00,
2013-07-03 08:17:00,62.1,52.9,21.87,SE,135,3.0,4.0,72,0.00,,,0.00,meteohub,2013-07-03 13:17:00,
2013-07-03 08:22:00,62.1,52.9,21.87,SE,135,4.0,4.0,72,0.00,,,0.00,meteohub,2013-07-03 13:22:00,
2013-07-03 08:27:00,62.1,53.2,21.87,ESE,113,4.0,4.0,73,0.00,,,0.00,meteohub,2013-07-03 13:27:00,
2013-07-03 08:32:00,62.4,53.2,21.87,East,90,4.0,6.0,72,0.00,,,0.00,meteohub,2013-07-03 13:32:00,
2013-07-03 08:37:00,63.0,53.1,21.87,SE,135,5.0,6.0,70,0.00,,,0.00,meteohub,2013-07-03 13:37:00,
2013-07-03 08:42:00,63.5,53.1,21.87,SE,135,4.0,6.0,69,0.00,,,0.00,meteohub,2013-07-03 13:42:00,
2013-07-03 08:47:00,64.6,53.8,21.87,SE,135,6.0,7.0,68,0.00,,,0.00,meteohub,2013-07-03 13:47:00,
2013-07-03 08:52:00,64.9,53.2,21.87,ESE,113,4.0,8.0,66,0.00,,,0.00,meteohub,2013-07-03 13:52:00,
2013-07-03 08:56:00,65.1,53.4,21.88,SE,135,8.0,8.0,66,0.00,,,0.00,meteohub,2013-07-03 13:56:00,
2013-07-03 09:01:00,65.7,53.6,21.88,East,90,7.0,8.0,65,0.00,,,0.00,meteohub,2013-07-03 14:01:00,
2013-07-03 09:06:00,66.9,54.9,21.87,SE,135,7.0,8.0,65,0.00,,,0.00,meteohub,2013-07-03 14:06:00,
2013-07-03 09:11:00,66.9,54.3,21.87,ESE,113,7.0,8.0,64,0.00,,,0.00,meteohub,2013-07-03 14:11:00,
2013-07-03 09:16:00,66.4,54.3,21.87,SE,135,5.0,8.0,65,0.00,,,0.00,meteohub,2013-07-03 14:16:00,
2013-07-03 09:17:00,66.4,54.3,21.87,SE,135,5.0,8.0,65,0.00,,,0.00,meteohub,2013-07-03 14:17:00,
2013-07-03 09:22:00,66.9,55.6,21.88,West,270,2.0,8.0,67,0.00,,,0.00,meteohub,2013-07-03 14:22:00,
2013-07-03 09:27:00,67.8,56.5,21.88,SE,135,4.0,7.0,67,0.00,,,0.00,meteohub,2013-07-03 14:27:00,
2013-07-03 09:32:00,67.5,55.8,21.88,NE,45,2.0,6.0,66,0.00,,,0.00,meteohub,2013-07-03 14:32:00,
2013-07-03 09:37:00,68.4,56.5,21.88,East,90,3.0,4.0,66,0.00,,,0.00,meteohub,2013-07-03 14:37:00,
2013-07-03 09:42:00,68.9,57.0,21.88,SE,135,3.0,4.0,66,0.00,,,0.00,meteohub,2013-07-03 14:42:00,
2013-07-03 09:47:00,68.9,56.7,21.88,SE,135,4.0,4.0,65,0.00,,,0.00,meteohub,2013-07-03 14:47:00,
2013-07-03 09:52:00,68.0,56.3,21.87,West,270,2.0,4.0,66,0.00,,,0.00,meteohub,2013-07-03 14:52:00,
2013-07-03 09:57:00,67.1,56.7,21.88,East,90,4.0,4.0,69,0.00,,,0.00,meteohub,2013-07-03 14:57:00,
2013-07-03 10:02:00,66.7,57.0,21.87,SW,225,4.0,4.0,71,0.00,,,0.00,meteohub,2013-07-03 15:02:00,
2013-07-03 10:07:00,66.6,57.2,21.88,West,270,7.0,7.0,72,0.00,,,0.00,meteohub,2013-07-03 15:07:00,
2013-07-03 10:08:00,66.7,57.4,21.88,SW,225,7.0,7.0,72,0.00,,,0.00,meteohub,2013-07-03 15:08:00,
2013-07-03 10:13:00,66.2,57.2,21.88,SE,135,3.0,7.0,73,0.00,,,0.00,meteohub,2013-07-03 15:13:00,
2013-07-03 10:18:00,66.4,57.9,21.87,SW,225,2.0,7.0,74,0.00,,,0.00,meteohub,2013-07-03 15:18:00,
2013-07-03 10:22:00,67.6,58.6,21.88,South,180,4.0,7.0,73,0.00,,,0.00,meteohub,2013-07-03 15:22:00,
2013-07-03 10:23:00,67.6,58.6,21.88,SE,135,3.0,7.0,73,0.00,,,0.00,meteohub,2013-07-03 15:23:00,
2013-07-03 10:28:00,67.6,58.6,21.88,South,180,4.0,4.0,73,0.00,,,0.00,meteohub,2013-07-03 15:28:00,
2013-07-03 10:33:00,67.3,58.6,21.88,SW,225,4.0,4.0,74,0.00,,,0.00,meteohub,2013-07-03 15:33:00,
2013-07-03 10:38:00,67.3,59.0,21.88,SE,135,4.0,4.0,75,0.00,,,0.00,meteohub,2013-07-03 15:38:00,
2013-07-03 10:43:00,68.0,59.4,21.88,SE,135,4.0,4.0,74,0.00,,,0.00,meteohub,2013-07-03 15:43:00,
2013-07-03 10:47:00,68.0,59.4,21.88,SE,135,3.0,5.0,74,0.00,,,0.00,meteohub,2013-07-03 15:47:00,
2013-07-03 10:52:00,67.5,60.1,21.88,South,180,2.0,6.0,77,0.00,,,0.00,meteohub,2013-07-03 15:52:00,
2013-07-03 10:57:00,67.5,60.4,21.88,SE,135,4.0,6.0,78,0.00,,,0.00,meteohub,2013-07-03 15:57:00,
2013-07-03 11:02:00,67.8,61.0,21.88,NE,45,4.0,6.0,79,0.00,,,0.00,meteohub,2013-07-03 16:02:00,
2013-07-03 11:07:00,68.4,60.8,21.88,SW,225,3.0,6.0,77,0.00,,,0.00,meteohub,2013-07-03 16:07:00,
2013-07-03 11:12:00,68.4,60.1,21.88,East,90,2.0,6.0,75,0.00,,,0.00,meteohub,2013-07-03 16:12:00,
2013-07-03 11:17:00,68.9,60.6,21.88,East,90,3.0,4.0,75,0.00,,,0.00,meteohub,2013-07-03 16:17:00,
2013-07-03 11:22:00,68.9,60.6,21.89,East,90,5.0,5.0,75,0.00,,,0.00,meteohub,2013-07-03 16:22:00,
2013-07-03 11:27:00,68.4,59.7,21.88,ESE,113,6.0,6.0,74,0.00,,,0.00,meteohub,2013-07-03 16:27:00,
2013-07-03 11:32:00,68.2,60.3,21.89,SE,135,4.0,6.0,76,0.00,,,0.00,meteohub,2013-07-03 16:32:00,
2013-07-03 11:37:00,69.6,61.3,21.89,SW,225,3.0,6.0,75,0.00,,,0.00,meteohub,2013-07-03 16:37:00,
2013-07-03 11:42:00,70.0,60.6,21.88,East,90,4.0,6.0,72,0.00,,,0.00,meteohub,2013-07-03 16:42:00,
2013-07-03 11:47:00,69.1,59.7,21.88,East,90,4.0,8.0,72,0.00,,,0.00,meteohub,2013-07-03 16:47:00,
2013-07-03 11:52:00,68.5,59.9,21.88,SE,135,3.0,8.0,74,0.00,,,0.00,meteohub,2013-07-03 16:52:00,
2013-07-03 11:57:00,68.2,59.5,21.88,SE,135,4.0,8.0,74,0.00,,,0.00,meteohub,2013-07-03 16:57:00,
2013-07-03 12:02:00,67.5,59.2,21.88,ESE,113,4.0,7.0,75,0.00,,,0.00,meteohub,2013-07-03 17:02:00,
2013-07-03 12:07:00,67.8,60.3,21.88,SE,135,4.0,6.0,77,0.00,,,0.00,meteohub,2013-07-03 17:07:00,
2013-07-03 12:12:00,68.0,59.7,21.88,SE,135,3.0,6.0,75,0.00,,,0.00,meteohub,2013-07-03 17:12:00,
2013-07-03 12:17:00,68.7,61.2,21.88,North,0,1.0,7.0,77,0.00,,,0.00,meteohub,2013-07-03 17:17:00,
2013-07-03 12:22:00,70.2,61.2,21.88,East,90,6.0,7.0,73,0.00,,,0.00,meteohub,2013-07-03 17:22:00,
2013-07-03 12:27:00,70.2,59.9,21.89,SE,135,4.0,7.0,70,0.00,,,0.00,meteohub,2013-07-03 17:27:00,
2013-07-03 12:32:00,69.8,59.5,21.88,West,270,4.0,6.0,70,0.00,,,0.00,meteohub,2013-07-03 17:32:00,
2013-07-03 12:37:00,69.6,60.3,21.89,South,180,2.0,6.0,72,0.00,,,0.00,meteohub,2013-07-03 17:37:00,
2013-07-03 12:42:00,70.5,60.3,21.89,East,90,3.0,5.0,70,0.00,,,0.00,meteohub,2013-07-03 17:42:00,
2013-07-03 12:47:00,71.1,60.4,21.89,East,90,2.0,5.0,69,0.00,,,0.00,meteohub,2013-07-03 17:47:00,
2013-07-03 12:52:00,72.1,60.1,21.89,South,180,3.0,5.0,66,0.00,,,0.00,meteohub,2013-07-03 17:52:00,
2013-07-03 12:57:00,72.3,60.3,21.89,East,90,1.0,4.0,66,0.00,,,0.00,meteohub,2013-07-03 17:57:00,
2013-07-03 13:02:00,72.0,59.5,21.89,ESE,113,2.0,5.0,65,0.00,,,0.00,meteohub,2013-07-03 18:02:00,
2013-07-03 13:07:00,71.1,59.5,21.90,SW,225,1.0,5.0,67,0.00,,,0.00,meteohub,2013-07-03 18:07:00,
2013-07-03 13:12:00,70.7,59.5,21.90,West,270,6.0,6.0,68,0.00,,,0.00,meteohub,2013-07-03 18:12:00,
2013-07-03 13:17:00,68.9,59.5,21.90,West,270,2.0,6.0,72,0.00,,,0.00,meteohub,2013-07-03 18:17:00,
2013-07-03 13:22:00,69.3,60.3,21.90,SW,225,2.0,6.0,73,0.00,,,0.00,meteohub,2013-07-03 18:22:00,
2013-07-03 13:27:00,70.7,60.8,21.90,SW,225,6.0,6.0,71,0.00,,,0.00,meteohub,2013-07-03 18:27:00,
2013-07-03 13:32:00,70.2,59.9,21.91,South,180,2.0,6.0,70,0.00,,,0.00,meteohub,2013-07-03 18:32:00,
2013-07-03 13:37:00,70.2,59.9,21.91,South,180,2.0,7.0,70,0.00,,,0.00,meteohub,2013-07-03 18:37:00,
2013-07-03 13:42:00,77.4,62.8,21.91,SE,135,5.0,7.0,61,0.00,,,0.00,meteohub,2013-07-03 18:42:00,
2013-07-03 13:47:00,78.6,62.1,21.91,NW,315,3.0,5.0,57,0.00,,,0.00,meteohub,2013-07-03 18:47:00,
2013-07-03 13:52:00,75.2,59.9,21.92,SE,135,3.0,5.0,59,0.00,,,0.00,meteohub,2013-07-03 18:52:00,
2013-07-03 13:57:00,74.3,60.8,21.91,SW,225,2.0,5.0,63,0.00,,,0.00,meteohub,2013-07-03 18:57:00,
2013-07-03 14:02:00,72.7,60.3,21.91,SE,135,4.0,5.0,65,0.00,,,0.00,meteohub,2013-07-03 19:02:00,
2013-07-03 14:07:00,71.6,60.1,21.91,NE,45,3.0,5.0,67,0.00,,,0.00,meteohub,2013-07-03 19:07:00,
2013-07-03 14:12:00,72.1,61.0,21.92,South,180,2.0,5.0,68,0.00,,,0.00,meteohub,2013-07-03 19:12:00,
2013-07-03 14:17:00,73.0,61.5,21.91,SE,135,0.0,5.0,67,0.00,,,0.00,meteohub,2013-07-03 19:17:00,
2013-07-03 14:22:00,74.3,61.7,21.91,SE,135,7.0,7.0,65,0.00,,,0.00,meteohub,2013-07-03 19:22:00,
2013-07-03 14:27:00,71.8,59.7,21.91,East,90,6.0,7.0,66,0.00,,,0.00,meteohub,2013-07-03 19:27:00,
2013-07-03 14:32:00,71.2,60.6,21.91,SE,135,2.0,8.0,69,0.00,,,0.00,meteohub,2013-07-03 19:32:00,
2013-07-03 14:37:00,72.0,60.8,21.91,East,90,4.0,8.0,68,0.00,,,0.00,meteohub,2013-07-03 19:37:00,
2013-07-03 14:42:00,72.0,60.8,21.92,SE,135,2.0,7.0,68,0.00,,,0.00,meteohub,2013-07-03 19:42:00,
2013-07-03 14:47:00,72.9,61.3,21.92,East,90,3.0,5.0,67,0.00,,,0.00,meteohub,2013-07-03 19:47:00,
2013-07-03 14:52:00,72.7,60.6,21.92,South,180,2.0,5.0,66,0.00,,,0.00,meteohub,2013-07-03 19:52:00,
2013-07-03 14:57:00,72.7,60.6,21.92,West,270,1.0,4.0,66,0.00,,,0.00,meteohub,2013-07-03 19:57:00,
2013-07-03 15:02:00,72.7,60.6,21.92,South,180,2.0,4.0,66,0.00,,,0.00,meteohub,2013-07-03 20:02:00,
2013-07-03 15:07:00,72.3,60.8,21.92,West,270,2.0,4.0,67,0.00,,,0.00,meteohub,2013-07-03 20:07:00,
2013-07-03 15:12:00,72.3,60.8,21.91,SE,135,4.0,4.0,67,0.00,,,0.00,meteohub,2013-07-03 20:12:00,
2013-07-03 15:17:00,72.5,60.1,21.92,East,90,4.0,4.0,65,0.00,,,0.00,meteohub,2013-07-03 20:17:00,
2013-07-03 15:22:00,72.7,60.6,21.92,SE,135,2.0,5.0,66,0.00,,,0.00,meteohub,2013-07-03 20:22:00,
2013-07-03 15:27:00,73.4,61.0,21.92,SE,135,3.0,5.0,65,0.00,,,0.00,meteohub,2013-07-03 20:27:00,
2013-07-03 15:32:00,73.9,61.0,21.91,NE,45,2.0,5.0,64,0.00,,,0.00,meteohub,2013-07-03 20:32:00,
2013-07-03 15:37:00,72.9,60.4,21.92,NW,315,3.0,4.0,65,0.00,,,0.00,meteohub,2013-07-03 20:37:00,
2013-07-03 15:42:00,72.1,60.6,21.92,NW,315,3.0,4.0,67,0.00,,,0.00,meteohub,2013-07-03 20:42:00,
2013-07-03 15:47:00,72.0,60.8,21.93,NE,45,2.0,4.0,68,0.00,,,0.00,meteohub,2013-07-03 20:47:00,
2013-07-03 15:52:00,73.4,61.3,21.93,NE,45,2.0,4.0,66,0.00,,,0.00,meteohub,2013-07-03 20:52:00,
2013-07-03 15:57:00,74.1,61.2,21.93,West,270,2.0,4.0,64,0.00,,,0.00,meteohub,2013-07-03 20:57:00,
2013-07-03 16:02:00,73.2,59.9,21.93,SW,225,2.0,4.0,63,0.00,,,0.00,meteohub,2013-07-03 21:02:00,
2013-07-03 16:07:00,73.2,60.8,21.93,NE,45,3.0,4.0,65,0.00,,,0.00,meteohub,2013-07-03 21:07:00,
2013-07-03 16:12:00,74.3,61.3,21.94,SE,135,3.0,4.0,64,0.00,,,0.00,meteohub,2013-07-03 21:12:00,
2013-07-03 16:17:00,75.4,61.5,21.94,East,90,4.0,4.0,62,0.00,,,0.00,meteohub,2013-07-03 21:17:00,
2013-07-03 16:22:00,75.0,61.2,21.94,West,270,2.0,5.0,62,0.00,,,0.00,meteohub,2013-07-03 21:22:00,
2013-07-03 16:28:00,74.1,60.8,21.94,North,0,2.0,5.0,63,0.00,,,0.00,meteohub,2013-07-03 21:28:00,
2013-07-03 16:33:00,74.7,61.7,21.94,West,270,0.0,5.0,64,0.00,,,0.00,meteohub,2013-07-03 21:33:00,
2013-07-03 16:38:00,75.7,61.9,21.94,SSE,158,2.0,3.0,62,0.00,,,0.00,meteohub,2013-07-03 21:38:00,
2013-07-03 16:43:00,75.9,61.9,21.94,ENE,68,4.0,4.0,62,0.00,,,0.00,meteohub,2013-07-03 21:43:00,
2013-07-03 16:48:00,74.7,60.8,21.94,South,180,2.0,4.0,62,0.00,,,0.00,meteohub,2013-07-03 21:48:00,
2013-07-03 16:53:00,73.2,59.4,21.94,South,180,2.0,4.0,62,0.00,,,0.00,meteohub,2013-07-03 21:53:00,
2013-07-03 16:58:00,72.9,59.5,21.94,SE,135,1.0,4.0,63,0.00,,,0.00,meteohub,2013-07-03 21:58:00,
2013-07-03 17:03:00,72.9,59.5,21.94,East,90,0.0,4.0,63,0.00,,,0.00,meteohub,2013-07-03 22:03:00,
2013-07-03 17:08:00,73.0,60.1,21.94,SE,135,0.0,4.0,64,0.00,,,0.00,meteohub,2013-07-03 22:08:00,
2013-07-03 17:13:00,73.0,60.1,21.94,SE,135,1.0,2.0,64,0.00,,,0.00,meteohub,2013-07-03 22:13:00,
2013-07-03 17:18:00,73.0,60.1,21.94,North,0,2.0,2.0,64,0.00,,,0.00,meteohub,2013-07-03 22:18:00,
2013-07-03 17:23:00,73.0,60.1,21.94,NE,45,2.0,2.0,64,0.00,,,0.00,meteohub,2013-07-03 22:23:00,
2013-07-03 17:28:00,73.0,60.1,21.94,South,180,0.0,2.0,64,0.00,,,0.00,meteohub,2013-07-03 22:28:00,
2013-07-03 17:33:00,73.0,60.1,21.95,West,270,0.0,2.0,64,0.00,,,0.00,meteohub,2013-07-03 22:33:00,
2013-07-03 17:38:00,72.7,59.7,21.95,West,270,0.0,2.0,64,0.00,,,0.00,meteohub,2013-07-03 22:38:00,
2013-07-03 17:43:00,72.9,59.9,21.95,North,0,2.0,2.0,64,0.00,,,0.00,meteohub,2013-07-03 22:43:00,
2013-07-03 17:48:00,73.0,60.1,21.94,West,270,1.0,2.0,64,0.00,,,0.00,meteohub,2013-07-03 22:48:00,
2013-07-03 17:53:00,72.9,59.9,21.95,NW,315,1.0,2.0,64,0.00,,,0.00,meteohub,2013-07-03 22:53:00,
2013-07-03 17:58:00,73.0,60.6,21.95,SE,135,3.0,3.0,65,0.00,,,0.00,meteohub,2013-07-03 22:58:00,
2013-07-03 18:03:00,73.4,60.4,21.95,NW,315,1.0,3.0,64,0.00,,,0.00,meteohub,2013-07-03 23:03:00,
2013-07-03 18:08:00,74.8,61.9,21.95,SE,135,2.0,3.0,64,0.00,,,0.00,meteohub,2013-07-03 23:08:00,
2013-07-03 18:13:00,75.0,61.5,21.96,SE,135,1.0,3.0,63,0.00,,,0.00,meteohub,2013-07-03 23:13:00,
2013-07-03 18:19:00,75.0,61.5,21.96,East,90,3.0,3.0,63,0.00,,,0.00,meteohub,2013-07-03 23:19:00,
2013-07-03 18:24:00,74.3,61.3,21.96,SE,135,4.0,4.0,64,0.00,,,0.00,meteohub,2013-07-03 23:24:00,
2013-07-03 18:29:00,73.0,59.7,21.96,East,90,4.0,4.0,63,0.00,,,0.00,meteohub,2013-07-03 23:29:00,
2013-07-03 18:34:00,72.5,60.1,21.96,NE,45,2.0,5.0,65,0.00,,,0.00,meteohub,2013-07-03 23:34:00,
2013-07-03 18:39:00,74.5,61.9,21.96,NE,45,2.0,5.0,65,0.00,,,0.00,meteohub,2013-07-03 23:39:00,
2013-07-03 18:44:00,75.7,61.3,21.96,East,90,3.0,5.0,61,0.00,,,0.00,meteohub,2013-07-03 23:44:00,
2013-07-03 18:49:00,75.7,61.3,21.96,NE,45,2.0,4.0,61,0.00,,,0.00,meteohub,2013-07-03 23:49:00,
2013-07-03 18:54:00,75.7,61.3,21.96,SE,135,4.0,4.0,61,0.00,,,0.00,meteohub,2013-07-03 23:54:00,
2013-07-03 18:59:00,73.9,60.6,21.96,SW,225,3.0,4.0,63,0.00,,,0.00,meteohub,2013-07-03 23:59:00,
2013-07-03 19:04:00,73.0,60.1,21.96,SW,225,0.0,4.0,64,0.00,,,0.00,meteohub,2013-07-04 00:04:00,
2013-07-03 19:09:00,72.7,60.3,21.96,East,90,2.0,4.0,65,0.00,,,0.00,meteohub,2013-07-04 00:09:00,
2013-07-03 19:14:00,72.3,59.9,21.96,East,90,2.0,3.0,65,0.00,,,0.00,meteohub,2013-07-04 00:14:00,
2013-07-03 19:19:00,71.8,60.3,21.96,SE,135,2.0,2.0,67,0.00,,,0.00,meteohub,2013-07-04 00:19:00,
2013-07-03 19:24:00,71.2,60.6,21.96,SW,225,0.0,3.0,69,0.00,,,0.00,meteohub,2013-07-04 00:24:00,
2013-07-03 19:29:00,71.1,61.2,21.96,South,180,0.0,3.0,71,0.00,,,0.00,meteohub,2013-07-04 00:29:00,
2013-07-03 19:34:00,72.0,61.2,21.95,West,270,0.0,3.0,69,0.00,,,0.00,meteohub,2013-07-04 00:34:00,
2013-07-03 19:39:00,73.0,61.9,21.96,North,0,0.0,3.0,68,0.00,,,0.00,meteohub,2013-07-04 00:39:00,
2013-07-03 19:44:00,73.4,61.3,21.96,North,0,0.0,0.0,66,0.00,,,0.00,meteohub,2013-07-04 00:44:00,
2013-07-03 19:49:00,72.9,60.4,21.96,North,0,0.0,0.0,65,0.00,,,0.00,meteohub,2013-07-04 00:49:00,
2013-07-03 19:54:00,72.7,60.6,21.96,NE,45,0.0,0.0,66,0.00,,,0.00,meteohub,2013-07-04 00:54:00,
2013-07-03 19:59:00,72.9,61.3,21.96,North,0,0.0,0.0,67,0.00,,,0.00,meteohub,2013-07-04 00:59:00,
2013-07-03 20:04:00,72.5,60.4,21.96,SW,225,0.0,0.0,66,0.00,,,0.00,meteohub,2013-07-04 01:04:00,
2013-07-03 20:09:00,71.2,61.0,21.96,SW,225,0.0,0.0,70,0.00,,,0.00,meteohub,2013-07-04 01:09:00,
2013-07-03 20:14:00,70.3,61.3,21.96,SW,225,0.0,0.0,73,0.00,,,0.00,meteohub,2013-07-04 01:14:00,
2013-07-03 20:19:00,69.6,61.0,21.96,SW,225,0.0,0.0,74,0.00,,,0.00,meteohub,2013-07-04 01:19:00,
2013-07-03 20:24:00,69.1,61.2,21.96,SW,225,0.0,0.0,76,0.00,,,0.00,meteohub,2013-07-04 01:24:00,
2013-07-03 20:29:00,68.5,61.0,21.96,SW,225,0.0,0.0,77,0.00,,,0.00,meteohub,2013-07-04 01:29:00,
2013-07-03 20:34:00,68.0,61.2,21.95,SW,225,0.0,0.0,79,0.00,,,0.00,meteohub,2013-07-04 01:34:00,
2013-07-03 20:39:00,67.5,61.3,21.96,SW,225,0.0,0.0,81,0.00,,,0.00,meteohub,2013-07-04 01:39:00,
2013-07-03 20:44:00,66.7,61.3,21.96,West,270,0.0,0.0,83,0.00,,,0.00,meteohub,2013-07-04 01:44:00,
2013-07-03 20:49:00,66.2,61.5,21.96,West,270,0.0,0.0,85,0.00,,,0.00,meteohub,2013-07-04 01:49:00,
2013-07-03 20:55:00,65.5,61.2,21.96,West,270,0.0,0.0,86,0.00,,,0.00,meteohub,2013-07-04 01:55:00,
2013-07-03 21:00:00,65.3,61.0,21.96,West,270,0.0,0.0,86,0.00,,,0.00,meteohub,2013-07-04 02:00:00,
2013-07-03 21:05:00,65.1,61.2,21.96,NW,315,0.0,0.0,87,0.00,,,0.00,meteohub,2013-07-04 02:05:00,
2013-07-03 21:10:00,64.9,61.0,21.95,NW,315,0.0,0.0,87,0.00,,,0.00,meteohub,2013-07-04 02:10:00,
2013-07-03 21:15:00,64.8,61.5,21.95,SW,225,0.0,0.0,89,0.00,,,0.00,meteohub,2013-07-04 02:15:00,
2013-07-03 21:20:00,64.4,61.3,21.95,SW,225,0.0,0.0,90,0.00,,,0.00,meteohub,2013-07-04 02:20:00,
2013-07-03 21:25:00,64.2,61.2,21.94,SW,225,0.0,0.0,90,0.00,,,0.00,meteohub,2013-07-04 02:25:00,
2013-07-03 21:30:00,64.0,61.0,21.94,West,270,0.0,0.0,90,0.00,,,0.00,meteohub,2013-07-04 02:30:00,
2013-07-03 21:35:00,64.2,61.2,21.94,West,270,0.0,0.0,90,0.00,,,0.00,meteohub,2013-07-04 02:35:00,
2013-07-03 21:40:00,64.0,61.0,21.94,West,270,0.0,0.0,90,0.00,,,0.00,meteohub,2013-07-04 02:40:00,
2013-07-03 21:45:00,63.9,60.8,21.94,West,270,0.0,0.0,90,0.00,,,0.00,meteohub,2013-07-04 02:45:00,
2013-07-03 21:50:00,63.9,60.8,21.94,West,270,0.0,0.0,90,0.00,,,0.00,meteohub,2013-07-04 02:50:00,
2013-07-03 21:55:00,63.7,60.6,21.94,SW,225,0.0,0.0,90,0.00,,,0.00,meteohub,2013-07-04 02:55:00,
2013-07-03 22:00:00,63.5,60.8,21.94,SW,225,0.0,0.0,91,0.00,,,0.00,meteohub,2013-07-04 03:00:00,
2013-07-03 22:05:00,63.1,60.8,21.94,SW,225,0.0,0.0,92,0.00,,,0.00,meteohub,2013-07-04 03:05:00,
2013-07-03 22:10:00,63.3,61.0,21.94,West,270,0.0,0.0,92,0.00,,,0.00,meteohub,2013-07-04 03:10:00,
2013-07-03 22:15:00,63.1,60.8,21.94,West,270,0.0,0.0,92,0.00,,,0.00,meteohub,2013-07-04 03:15:00,
2013-07-03 22:20:00,63.1,60.8,21.94,West,270,0.0,0.0,92,0.00,,,0.00,meteohub,2013-07-04 03:20:00,
2013-07-03 22:25:00,63.0,60.6,21.94,SW,225,0.0,0.0,92,0.00,,,0.00,meteohub,2013-07-04 03:25:00,
2013-07-03 22:30:00,62.8,60.8,21.94,West,270,0.0,0.0,93,0.00,,,0.00,meteohub,2013-07-04 03:30:00,
2013-07-03 22:35:00,62.8,60.8,21.94,SW,225,0.0,0.0,93,0.00,,,0.00,meteohub,2013-07-04 03:35:00,
2013-07-03 22:40:00,62.4,60.6,21.94,West,270,0.0,0.0,94,0.00,,,0.00,meteohub,2013-07-04 03:40:00,
2013-07-03 22:45:00,62.2,60.8,21.94,West,270,0.0,0.0,95,0.00,,,0.00,meteohub,2013-07-04 03:45:00,
2013-07-03 22:50:00,62.2,60.8,21.95,West,270,0.0,0.0,95,0.00,,,0.00,meteohub,2013-07-04 03:50:00,
2013-07-03 22:56:00,62.1,60.6,21.95,West,270,0.0,0.0,95,0.00,,,0.00,meteohub,2013-07-04 03:56:00,
2013-07-03 23:01:00,61.9,60.4,21.95,West,270,0.0,0.0,95,0.00,,,0.00,meteohub,2013-07-04 04:01:00,
2013-07-03 23:02:00,61.9,60.4,21.94,West,270,0.0,0.0,95,0.00,,,0.00,meteohub,2013-07-04 04:02:00,
2013-07-03 23:07:00,61.9,60.4,21.94,West,270,0.0,0.0,95,0.00,,,0.00,meteohub,2013-07-04 04:07:00,
2013-07-03 23:12:00,61.3,59.9,21.94,SW,225,0.0,0.0,95,0.00,,,0.00,meteohub,2013-07-04 04:12:00,
2013-07-03 23:17:00,61.3,60.3,21.94,SW,225,0.0,0.0,96,0.00,,,0.00,meteohub,2013-07-04 04:17:00,
2013-07-03 23:22:00,61.3,60.3,21.94,NW,315,0.0,0.0,96,0.00,,,0.00,meteohub,2013-07-04 04:22:00,
2013-07-03 23:27:00,61.2,60.1,21.94,NW,315,0.0,0.0,96,0.00,,,0.00,meteohub,2013-07-04 04:27:00,
2013-07-03 23:32:00,61.3,60.3,21.94,SW,225,0.0,0.0,96,0.00,,,0.00,meteohub,2013-07-04 04:32:00,
2013-07-03 23:37:00,61.2,60.3,21.94,SW,225,0.0,0.0,97,0.00,,,0.00,meteohub,2013-07-04 04:37:00,
2013-07-03 23:42:00,61.0,60.1,21.94,SW,225,0.0,0.0,97,0.00,,,0.00,meteohub,2013-07-04 04:42:00,
2013-07-03 23:47:00,60.8,60.3,21.94,West,270,0.0,0.0,98,0.00,,,0.00,meteohub,2013-07-04 04:47:00,
2013-07-03 23:52:00,61.0,60.4,21.94,West,270,0.0,0.0,98,0.00,,,0.00,meteohub,2013-07-04 04:52:00,
2013-07-03 23:57:00,61.0,60.4,21.94,North,0,0.0,0.0,98,0.00,,,0.00,meteohub,2013-07-04 04:57:00,